Regional Weather Roundup
Issued by NWS

Home | Current Version | Previous Version | Text Only | Print | Product List | Glossary On
Versions: 1 2 3 4 5 6 7 8 9 10 11 12 13 14 15 16 17 18 19 20 21 22 23 24 25 26 27 28 29 30 31 32 33 34 35 36 37 38 39 40 41 42 43 44 45 46 47 48 49 50
000
ASUS43 KMPX 191010
RWRMN
WEATHER ROUNDUP FOR MINNESOTA
NATIONAL WEATHER SERVICE TWIN CITIES/CHANHASSEN MN
500 AM CDT FRI JUL 19 2019


NOTE: "FAIR" INDICATES FEW OR NO CLOUDS BELOW 12,000 FEET WITH NO
SIGNIFICANT WEATHER AND/OR OBSTRUCTIONS TO VISIBILITY. N/A MEANS
CURRENT SKY AND/OR WEATHER CONDITIONS ARE NOT AVAILABLE.

MNZ060>063-068>070-191100-
   Twin Cities Metro

CITY           SKY/WX    TMP DP  RH WIND       PRES   REMARKS
TWIN CITIES    FAIR      74  69  85 E3        29.69R
ST PAUL        FAIR      71  69  93 CALM      29.69R
CRYSTAL        FAIR      71  71 100 N3        29.68R
BLAINE         FAIR      72  72 100 CALM      29.70R
LAKEVILLE      FAIR      70 N/A N/A CALM      29.70R
EDEN PRAIRIE   FAIR      73  70  90 CALM      29.69R
SOUTH ST PAUL  FAIR      72  71  96 CALM      29.70R
LAKE ELMO        N/A    N/A N/A N/A CALM      29.72R
$$
MNZ001>005-007-008-013>017-022>024-027-028-191100-
   Northwest Minnesota

CITY           SKY/WX    TMP DP  RH WIND       PRES   REMARKS
BEMIDJI        FAIR      61  59  94 CALM      29.67F
HALLOCK        PTCLDY    59  57  94 SE5       29.57S
ROSEAU         FAIR      63  57  82 CALM      29.60S
WARROAD        FAIR      61  57  88 S5        29.60F
THIEF RVR FALL PTCLDY    62  59  90 S8        29.64F
CROOKSTON      MOCLDY    64  63  94 S6        29.62S
FOSSTON        CLEAR     61  59  94 S6        29.66F
DETROIT LAKES  FAIR      64  61  88 SE3       29.69F
MOORHEAD       CLEAR     66  63  88 S6        29.66R
PARK RAPIDS    FAIR      63  58  83 CALM      29.69F
$$
MNZ006-009>011-018-025>026-191100-
   North Central Minnesota

CITY           SKY/WX    TMP DP  RH WIND       PRES   REMARKS
BAUDETTE       FAIR      61  56  83 S7        29.62R
FLAG ISLAND      N/A     66  57  72 SW12      29.57S
INTL FALLS     FAIR      63  62  97 SW7       29.62R
WASKISH          N/A     64  61  88 CALM      29.64F
BIG FORK       FAIR      59  57  94 CALM      29.74R
LONGVILLE      FAIR      57  57 100 CALM      29.70S
GRAND RAPIDS   FAIR      61  59  93 CALM      29.72R
ORR            FAIR      64  59  82 SW3       29.65S
COOK           FAIR      63  61  94 SW3       29.68S
WALKER         FAIR      60  59  94 CALM      29.69S
$$
MNZ012-019>021-037-191100-
   Northeast Minnesota

CITY           SKY/WX    TMP DP  RH WIND       PRES   REMARKS
DULUTH         FAIR      71  57  61 NW8       29.70R
ELY            FAIR      63  63 100 SW3       29.68R
HIBBING        FAIR      52  52 100 CALM      29.69R FOG
DULUTH HARBOR  CLOUDY    72  63  73 SW3G9     29.68R
TWO HARBORS    FAIR      68  59  73 W5        29.67R
SILVER BAY     FAIR      66  57  72 W3        29.67R
GRAND MARAIS     N/A     57  57 100 CALM      29.63R
G MARAIS ARPRT FAIR      64  59  82 W7        29.67S
$$
MNZ029>031-032-039>041-046>048-054>057-064-191100-
   West Central Minnesota

CITY           SKY/WX    TMP DP  RH WIND       PRES   REMARKS
FERGUS FALLS   FAIR      73  61  64 E5        29.67R
WHEATON        CLEAR     70  66  88 E6        29.68F
MORRIS         CLEAR     70  70 100 SE3       29.64F
ALEXANDRIA     FAIR      73  67  81 SE6       29.72S
WADENA         FAIR      63  63 100 CALM      29.69F
GLENWOOD       FAIR      70  66  88 CALM      29.72S
BENSON         CLEAR     64  64 100 SE3       29.69F FOG
ORTONVILLE       N/A     72  70  94 E6        29.67F
MADISON        CLEAR     72  70  94 E7        29.67F
WILLMAR        FAIR      70  66  88 CALM      29.74R
$$
MNZ033>034-036-042>043-049>051-058-059-191100-
   Central Minnesota

CITY           SKY/WX    TMP DP  RH WIND       PRES   REMARKS
ST CLOUD       FAIR      70  68  93 CALM      29.70R
SAUK CENTRE    FAIR      69  67  94 CALM      29.71S
PAYNESVILLE    FAIR      66  66 100 CALM      29.73R
AITKIN         FOG       57  55  94 CALM      29.70R VSB 1/4
BRAINERD       FAIR      65  62  90 CALM      29.71R FOG
STAPLES        FAIR      63  63 100 CALM      29.71S
LONG PRAIRIE   FAIR      68  68 100 CALM      29.71F
LITTLE FALLS   FAIR      68  68 100 CALM      29.71S FOG
LITCHFIELD     FAIR      70  70 100 CALM      29.72R FOG
BUFFALO        FAIR      70  67  93 MISG      29.71R
MAPLE LAKE     FOG       69  68  99 CALM      29.72R VSB 1/2
HUTCHINSON     PTCLDY    68  68  99 CALM      29.72R
$$
MNZ037-044-045-052-053-191100-
   East Central Minnesota

CITY           SKY/WX    TMP DP  RH WIND       PRES   REMARKS
PRINCETON      FAIR      68  66  94 CALM      29.72R FOG
MORA           FOG       68  68 100 CALM      29.73R VSB 3/4
CAMBRIDGE      HAZE      72  63  73 CALM      29.72R VSB 1/2
RUSH CITY      FAIR      64  63  96 CALM      29.72R FOG
MOOSE LAKE     FOG       63  63 100 CALM      29.70R VSB 1/2
HINCKLEY       FOG       64  64 100 CALM      29.71R VSB 1/4
CLOQUET        FAIR      64  59  82 CALM      29.71R
MCGREGOR       FAIR      63  61  94 CALM      29.72R
$$
MNZ071>073-080-081-089-090-097-098-191100-
   Southwest Minnesota

CITY           SKY/WX    TMP DP  RH WIND       PRES   REMARKS
MONTEVIDEO     CLEAR     70  66  88 SE3       29.69S
GRANITE FALLS  CLEAR     72  70  95 E3        29.70S
CANBY          CLEAR     71  69  90 E3        29.69F
MARSHALL       CLEAR     70  69  97 NE5       29.68F
REDWOOD FALLS  PTCLDY    71  71 100 NE6       29.70R FOG
OLIVIA         CLEAR     70  68  94 CALM      29.70R
PIPESTONE      CLEAR     73  72  94 SW3       29.71S
WINDOM         FOG       70  70 100 CALM      29.71S VSB 1/2
WORTHINGTON    PTCLDY    71  70  96 CALM      29.72R FOG
JACKSON        CLEAR     72  72 100 CALM      29.72S
TRACY          CLEAR    N/A N/A N/A CALM      29.70S HAZE
$$
MNZ065>067-074>077-082>085-091>093-191100-
   South Central Minnesota

CITY           SKY/WX    TMP DP  RH WIND       PRES   REMARKS
MANKATO        FAIR      73  73 100 CALM      29.72R
NEW ULM        CLEAR     72  70  94 CALM      29.71R
FAIRMONT       FOG       72  70  94 N3        29.71R VSB 1/2
GLENCOE        FAIR      69  69 100 CALM      29.70R
WASECA         FAIR      70  68  94 CALM      29.73R FOG
$$
MNZ078>079-086>088-094>096-191100-
   Southeast Minnesota

CITY           SKY/WX    TMP DP  RH WIND       PRES   REMARKS
ROCHESTER      MOCLDY    74  72  93 SE7       29.73R
RED WING       FAIR      72  72 100 CALM      29.68S FOG
STANTON        FAIR      70  69  96 CALM      29.69R FOG
DODGE CENTER   CLOUDY   N/A N/A N/A CALM      29.72R HAZE
WINONA         FAIR      75  72  88 E3        29.70R
AUSTIN         FAIR      79  72  78 SE3       29.72S HAZE
PRESTON        LGT RAIN  74  71  92 SE10      29.76R
$$
ABBREVIATIONS USED IN REMARKS
   TC - TEMPERATURES IN CELSIUS
  WCI - WIND CHILL INDEX
   HX - HEAT INDEX
  VSB - VISIBILITY
$$



USA.gov is the U.S. government's official web portal to all federal, state and local government web resources and services.